DLH9CX EHAM-EDDM

Flight info

Callsign DLH9CX
Flight time N/A
Altitude 35000
Route EDUPO Z739 MISGO DCT DOJOH DCT DODEN/N0450F330 DCT TABUM DCT BOMBI T104 HAREM/N0428F270 T104 ROKIL ROKIL1A
Aircraft A320/M-SDE3FGHIRWY/LB1

Departure

Time 2026-05-06 11:48
Airport Amsterdam Airport Schiphol (EHAM)

Arrival

Time N/A
Airport Munich Airport (EDDM)
Time Latitude Longitude Altitude Speed Heading
2026-05-06 11:12 52.30376 4.76393 -2 ft 0 kts 235°
2026-05-06 11:35 52.30387 4.76417 -2 ft 4 kts 225°
2026-05-06 11:35 52.30408 4.76442 -2 ft 4 kts 195°
2026-05-06 11:36 52.30432 4.76442 -2 ft 2 kts 150°
2026-05-06 11:36 52.30434 4.76440 -2 ft 0 kts 149°
2026-05-06 11:41 52.30430 4.76444 -2 ft 2 kts 149°
2026-05-06 11:42 52.30418 4.76455 -2 ft 6 kts 149°
2026-05-06 11:42 52.30361 4.76512 -2 ft 10 kts 149°
2026-05-06 11:42 52.30299 4.76518 -2 ft 11 kts 212°
2026-05-06 11:42 52.30247 4.76393 -2 ft 13 kts 237°
2026-05-06 11:43 52.30199 4.76270 -2 ft 13 kts 238°
2026-05-06 11:43 52.30136 4.76104 -2 ft 20 kts 237°
2026-05-06 11:43 52.30065 4.75920 -3 ft 18 kts 238°
2026-05-06 11:44 52.29939 4.75594 -2 ft 16 kts 238°
2026-05-06 11:44 52.29884 4.75450 -2 ft 14 kts 238°
2026-05-06 11:44 52.29838 4.75316 -2 ft 13 kts 245°
2026-05-06 11:44 52.29847 4.75183 -2 ft 15 kts 309°
2026-05-06 11:45 52.29936 4.75018 -3 ft 21 kts 311°
2026-05-06 11:45 52.30043 4.74822 -3 ft 24 kts 310°
2026-05-06 11:45 52.30157 4.74610 -3 ft 25 kts 311°
2026-05-06 11:45 52.30270 4.74397 -2 ft 20 kts 311°
2026-05-06 11:46 52.30341 4.74267 -2 ft 15 kts 311°
2026-05-06 11:46 52.30407 4.74145 -2 ft 10 kts 311°
2026-05-06 11:46 52.30427 4.74052 -2 ft 10 kts 255°
2026-05-06 11:46 52.30408 4.73925 -3 ft 13 kts 271°
2026-05-06 11:47 52.30411 4.73818 -5 ft 8 kts 273°
2026-05-06 11:47 52.30427 4.73756 -4 ft 5 kts 334°
2026-05-06 11:47 52.30471 4.73759 -4 ft 14 kts
2026-05-06 11:47 52.30807 4.73791 -1 ft 82 kts
2026-05-06 11:48 52.31576 4.73861 -4 ft 137 kts
2026-05-06 11:48 52.32641 4.73950 296 ft 157 kts
2026-05-06 11:48 52.33708 4.74266 1057 ft 158 kts 21°
2026-05-06 11:48 52.34743 4.74995 1631 ft 170 kts 23°
2026-05-06 11:49 52.35918 4.75755 1945 ft 194 kts 22°
2026-05-06 11:49 52.37254 4.76612 2362 ft 218 kts 25°
2026-05-06 11:49 52.38538 4.78123 2877 ft 238 kts 45°
2026-05-06 11:49 52.39703 4.80101 3765 ft 243 kts 45°
2026-05-06 11:50 52.40892 4.82113 4691 ft 249 kts 45°
2026-05-06 11:50 52.41973 4.84356 5549 ft 255 kts 63°
2026-05-06 11:50 52.42389 4.87193 6450 ft 262 kts 86°
2026-05-06 11:50 52.42396 4.90186 7325 ft 264 kts 89°
2026-05-06 11:51 52.42400 4.93236 8112 ft 271 kts 88°
2026-05-06 11:51 52.42189 4.96345 8883 ft 280 kts 103°
2026-05-06 11:51 52.41375 4.99284 9627 ft 290 kts 123°
2026-05-06 11:51 52.39980 5.01717 10331 ft 298 kts 142°
2026-05-06 11:52 52.38240 5.03765 10632 ft 320 kts 144°
2026-05-06 11:52 52.36348 5.05943 10843 ft 344 kts 145°
2026-05-06 11:52 52.34345 5.08250 11272 ft 357 kts 143°
2026-05-06 11:52 52.32489 5.11004 11937 ft 363 kts 132°
2026-05-06 11:53 52.30817 5.14065 12675 ft 367 kts 132°
2026-05-06 11:53 52.29090 5.17220 13453 ft 370 kts 132°
2026-05-06 11:53 52.27372 5.20339 14019 ft 377 kts 133°
2026-05-06 11:53 52.25608 5.23530 14679 ft 379 kts 133°
2026-05-06 11:54 52.23903 5.26835 15331 ft 382 kts 126°
2026-05-06 11:54 52.22361 5.30379 16001 ft 384 kts 126°